カタログに戻る

COSMOS 2491 DEB

LostPO
NORAD 57546·DEBRIS·🇷🇺 Russia

打ち上げ Dec 25, 2013 から Plesetsk Cosmodrome

Loading…

次のパス (今後24時間)

TLE

古いSource: Space-Track

元期: Sep 13, 2023, 16:36 UTC

1 57546U 13076AH  23256.69199118  .00000470  00000-0  20508-2 0  9994
2 57546  82.6332  44.3796 0062313 301.0633  58.4360 12.78284294 16298

AllMySatでCOSMOS 2491 DEBをリアルタイム追跡

Download on the App Store